Weather History for SPHI - March, 2013

Change the Weather History Date:

Saturday, March 2, 2013

  Actual Average Record
Temperature  
Mean Temperature 80 °F -  
Max Temperature 90 °F 87 °F 91 °F (2002)
Min Temperature 69 °F 69 °F 68 °F (2011)
Cooling Degree Days 14    
Growing Degree Days 30 (Base 50)    
Moisture  
Dew Point 69 °F    
Average Humidity 72    
Maximum Humidity 88    
Minimum Humidity 46    
Precipitation  
Precipitation 0.00 in 0.01 in - ()
Sea Level Pressure  
Sea Level Pressure 29.81 in    
Wind  
Wind Speed 5 mph ()    
Max Wind Speed 15 mph    
Max Gust Speed -    
Visibility 6.1 miles    
Events      
Averages and records for this station are not official NWS values.
T = Trace of Precipitation, MM = Missing Value Source: Averaged Metar Reports

Daily Weather History Graph

Daily Weather History Graph

Search for Another Location

Airport or City:

Trip Planner

Search our weather history database for the weather conditions in past years. The results will help you decide how hot, cold, wet, or windy it might be!

Date:

Astronomy

Mar. 02, 2013 Rise Set
Actual Time 6:24 AM PET 6:37 PM PET
Civil Twilight 6:03 AM PET 6:58 PM PET
Nautical Twilight 5:39 AM PET 7:23 PM PET
Astronomical Twilight 5:14 AM PET 7:47 PM PET
Moon 10:36 PM PET (3/2) 10:24 AM PET (3/2)
Length of Visible Light 12h 55m
Length of Day
12h 13m
Waning Gibbous, 74% of the Moon is Illuminated
Mar 2
Waning Gibbous
Mar 4
Last Quarter
Mar 11
New
Mar 19
First Quarter
Mar 27
Full

Hourly Weather History & Observations

Time (PET) Temp. Heat Index Dew Point Humidity Pressure Visibility Wind Dir Wind Speed Gust Speed Precip Events Conditions
12:00 AM 75.2 °F - 69.8 °F 83% 29.83 in - Variable 2.3 mph - N/A   Clear
1:00 AM 74 °F - 69 °F 81% 29.83 in 6 mi NNE 3.5 mph - -   Partly Cloudy
1:00 AM 73.4 °F - 69.8 °F 88% 29.83 in 6.2 mi NNE 3.5 mph - N/A   Mostly Cloudy
2:00 AM 73.4 °F - 69.8 °F 88% 29.80 in 6.2 mi NNW 4.6 mph - N/A   Mostly Cloudy
3:00 AM 73.4 °F - 69.8 °F 88% 29.80 in 6.2 mi North 3.5 mph - N/A   Mostly Cloudy
4:00 AM 72 °F - 69 °F 86% 29.80 in 6 mi Calm Calm - -   Partly Cloudy
4:00 AM 71.6 °F - 68.0 °F 88% 29.77 in 6.2 mi Calm Calm - N/A   Mostly Cloudy
5:00 AM 71.6 °F - 68.0 °F 88% 29.80 in 6.2 mi South 3.5 mph - N/A   Mostly Cloudy
6:00 AM 71.6 °F - 68.0 °F 88% 29.80 in - South 3.5 mph - N/A   Clear
7:00 AM 71 °F - 68 °F 88% 29.83 in 6 mi SSW 3.5 mph - -   Partly Cloudy
7:00 AM 71.6 °F - 68.0 °F 88% 29.83 in - SSW 3.5 mph - N/A   Clear
8:00 AM 71.6 °F - 68.0 °F 88% 29.83 in - SSW 5.8 mph - N/A   Clear
9:00 AM 75.2 °F - 69.8 °F 83% 29.86 in - SSW 5.8 mph - N/A   Clear
10:00 AM 80.6 °F 84.6 °F 71.6 °F 74% 29.86 in - SSW 4.6 mph - N/A   Clear
11:00 AM 84.2 °F 89.6 °F 71.6 °F 66% 29.83 in - Variable 2.3 mph - N/A   Clear
12:00 PM 89.6 °F 96.2 °F 71.6 °F 55% 29.83 in - South 8.1 mph - N/A   Clear
1:00 PM 90 °F - 73 °F 49% 29.81 in 6 mi SSW 10.4 mph - -   Partly Cloudy
1:00 PM 89.6 °F 98.2 °F 73.4 °F 59% 29.80 in 6.2 mi SSW 10.4 mph - N/A   Partly Cloudy
2:00 PM 91.4 °F 96.8 °F 69.8 °F 49% 29.77 in - SSW 11.5 mph - N/A   Clear
3:00 PM 89.6 °F 94.7 °F 69.8 °F 52% 29.77 in - SSW 13.8 mph - N/A   Clear
4:00 PM 88 °F - 70 °F 46% 29.74 in 6 mi South 15.0 mph - -   Partly Cloudy
4:00 PM 87.8 °F 92.6 °F 69.8 °F 55% 29.74 in - South 15.0 mph - N/A   Clear
5:00 PM 82.4 °F 86.3 °F 69.8 °F 66% 29.74 in - South 12.7 mph - N/A   Clear
6:00 PM 78.8 °F - 68.0 °F 69% 29.74 in - South 13.8 mph - N/A   Clear
7:00 PM 78 °F - 68 °F 65% 29.77 in 6 mi South 13.8 mph - -   Partly Cloudy
7:00 PM 78.8 °F - 68.0 °F 69% 29.77 in - South 13.8 mph - N/A   Clear
8:00 PM 77.0 °F - 66.2 °F 69% 29.80 in - South 13.8 mph - N/A   Clear
9:00 PM 77.0 °F - 66.2 °F 69% 29.83 in - South 9.2 mph - N/A   Clear
10:00 PM 78 °F - 67 °F 60% 29.87 in 6 mi South 9.2 mph - -   Partly Cloudy
10:00 PM 77.0 °F - 66.2 °F 69% 29.86 in 6.2 mi South 9.2 mph - N/A   Mostly Cloudy
11:00 PM 77.0 °F - 66.2 °F 69% 29.89 in 6.2 mi South 8.1 mph - N/A   Mostly Cloudy